Location: El Bakhil
(32.7726°N, 5.5387°W)
Time: 14:12:53
(UTC+00:00)

Hubble Space Telescope - Visible Passes

Search period start: 14 May 2021 00:00
Search period end: 24 May 2021 00:00
Orbit: 535 x 539 km, 28.5° (Epoch: 14 May)

Date Brightness Start Highest point End Pass type
(mag) Time Alt. Az. Time Alt. Az. Time Alt. Az.
21 May 3.2 03:20:52 12° SE 03:20:52 12° SE 03:21:51 10° SE visible
22 May 3.1 03:10:23 14° SE 03:10:23 14° SE 03:11:30 10° ESE visible
22 May 1.7 04:45:56 10° SW 04:49:43 36° S 04:53:30 10° ESE visible
23 May 3.1 02:59:53 14° SE 02:59:53 14° SE 03:00:56 10° ESE visible
23 May 1.5 04:35:11 12° WSW 04:38:45 39° S 04:42:36 10° ESE visible
